Location: Unspecified
(0.0000°N, 0.0000°E)
Time: 10:18:31
(UTC+00:00)

Altair - Visible Passes

Search period start: 22 November 2014 00:00
Search period end: 02 December 2014 00:00
Orbit: 1501 x 1683 km, 47.2° (Epoch: 21 November)

Date Brightness Start Highest point End Pass type
(mag) Time Alt. Az. Time Alt. Az. Time Alt. Az.
22 Nov 8.5 03:39:20 21° N 03:45:21 39° NE 03:54:32 10° ESE visible
22 Nov 9.3 18:34:04 10° W 18:40:11 20° NW 18:46:19 10° N visible
23 Nov 8.6 03:16:09 26° N 03:20:10 35° NE 03:29:02 10° ESE visible
23 Nov 8.0 05:15:13 10° NW 05:24:51 53° SW 05:34:40 10° SSE visible
23 Nov 9.2 18:08:18 10° W 18:15:00 22° NW 18:21:42 10° N visible
24 Nov 8.7 02:52:57 29° NNE 02:54:58 31° NE 03:03:29 10° ESE visible
24 Nov 7.8 04:51:01 14° NW 04:59:40 59° SW 05:09:38 10° SSE visible
25 Nov 8.8 02:29:44 28° NE 02:29:46 28° NE 02:37:51 10° ESE visible
25 Nov 7.7 04:27:48 24° NW 04:34:30 66° SW 04:44:34 10° SSE visible
26 Nov 9.1 02:06:29 23° ENE 02:06:29 23° ENE 02:12:09 10° E visible
26 Nov 7.6 04:04:32 36° NW 04:09:19 73° SW 04:19:28 10° SSE visible
27 Nov 9.4 01:43:11 17° ENE 01:43:11 17° ENE 01:46:21 10° E visible
27 Nov 7.5 03:41:14 53° NW 03:44:09 81° SW 03:54:20 10° SE visible
28 Nov 9.7 01:19:50 11° E 01:19:50 11° E 01:20:26 10° E visible
28 Nov 7.4 03:17:53 75° NW 03:18:59 89° SW 03:29:11 10° SE visible
28 Nov 9.0 05:17:45 10° W 05:24:05 18° SW 05:30:30 10° S visible
29 Nov 7.5 02:54:29 79° ESE 02:54:29 79° ESE 03:03:59 10° SE visible
29 Nov 8.9 04:52:32 12° W 04:58:49 21° SW 05:05:54 10° S visible
30 Nov 8.0 02:31:02 57° ESE 02:31:02 57° ESE 02:38:46 10° SE visible
30 Nov 8.8 04:29:05 18° W 04:33:34 24° SW 04:41:12 10° S visible
01 Dec 8.5 02:07:32 41° ESE 02:07:32 41° ESE 02:13:31 10° SE visible
01 Dec 8.6 04:05:34 24° WSW 04:08:20 27° SW 04:16:26 10° S visible
